SB KEPS @ AMSAT $ORB16105.N 2Line Orbital Elements 16105.AMSAT
HR AMSAT ORBITAL ELEMENTS FOR AMATEUR SATELLITES IN NASA FORMAT FROM WA5QGD FORT WORTH,TX April 14, 2016 BID: ORB16105.N
DECODE 2-LINE ELSETS WITH THE FOLLOWING KEY: 1 AAAAAU 00 0 0 BBBBB.BBBBBBBB .CCCCCCCC 00000-0 00000-0 0 DDDZ 2 AAAAA EEE.EEEE FFF.FFFF GGGGGGG HHH.HHHH III.IIII JJ.JJJJJJJJKKKKKZ KEY: A-CATALOGNUM B-EPOCHTIME C-DECAY D-ELSETNUM E-INCLINATION F-RAAN G-ECCENTRICITY H-ARGPERIGEE I-MNANOM J-MNMOTION K-ORBITNUM Z-CHECKSUM
TO ALL RADIO AMATEURS BT
AO-07 1 07530U 74089B 16104.89508756 -.00000021 00000-0 14189-3 0 9993 2 07530 101.5683 77.2339 0012456 76.1198 338.3806 12.53620719895067 FO-29 1 24278U 96046B 16105.06018421 .00000022 00000-0 59226-4 0 9995 2 24278 098.5834 038.6642 0350685 008.8526 351.8587 13.53066606970589 RS-22 1 27939U 03042A 16105.80664544 .00000342 00000-0 70235-4 0 9999 2 27939 97.8799 259.9563 0013856 142.1390 218.0790 14.66372710670538 HO-68 1 36122U 09072B 16105.66983324 -.00000059 00000-0 -43517-4 0 9996 2 36122 100.1502 144.0802 0008029 140.0264 220.1444 13.16333686304251 AO-73 1 39444U 13066AE 16105.04435715 .00000906 00000-0 12049-3 0 9996 2 39444 097.6879 161.1720 0057942 229.4861 130.1297 14.80973018127496 EO-79 1 40025U 14033R 16105.77990154 .00000891 00000-0 10336-3 0 9991 2 40025 97.9329 11.2445 0011212 273.6698 86.3236 14.87926868 98775 XW-2A 1 40903U 15049E 16105.81339383 .00004838 00000-0 14036-3 0 9996 2 40903 97.4484 120.2079 0016418 9.0949 115.1049 15.35888112 31823 XW-2C 1 40906U 15049H 16105.85566240 .00001540 00000-0 89830-4 0 9999 2 40906 97.4543 114.3046 0013953 256.7851 223.8370 15.13367907 31424 LILACSAT-2 1 40908U 15049K 16105.82501421 .00001453 00000-0 87201-4 0 9991 2 40908 97.4609 114.2150 0014847 249.3941 233.9520 15.12410846 31402 XW-2E 1 40909U 15049L 16105.84648442 .00002732 00000-0 15293-3 0 9991 2 40909 97.4546 114.4652 0013048 259.3611 222.1119 15.14216033 31430 UO-11 1 14781U 84021B 16105.19384422 .00000335 00000-0 47796-4 0 9990 2 14781 97.7566 159.1317 0009174 155.5257 204.6394 14.82716349726773 LO-19 1 20442U 90005G 16105.79709663 .00000049 00000-0 33877-4 0 9991 2 20442 98.5399 41.6339 0011386 339.5183 20.5543 14.32809825370274 AO-27 1 22825U 93061C 16105.34046400 .00000059 00000-0 40528-4 0 9999 2 22825 98.7528 61.2161 0009079 138.6520 221.5350 14.29949280176119 IO-26 1 22826U 93061D 16105.74914341 .00000053 00000-0 37865-4 0 9996 2 22826 98.7472 61.7583 0009744 129.7850 230.4191 14.30273075176337 GO-32 1 25397U 98043D 16104.83020528 .00000029 00000-0 31449-4 0 9996 2 25397 98.5614 51.4624 0001855 130.0228 230.1114 14.23590245922705 NO-44 1 26931U 01043C 16105.22011513 .00000010 00000-0 35745-4 0 9996 2 26931 67.0494 117.9374 0007549 266.0861 93.9377 14.30399498758995 SO-50 1 27607U 02058C 16105.64267319 .00000457 00000-0 64470-4 0 9999 2 27607 64.5572 354.9912 0073996 230.1897 129.3161 14.75122007715892 CO-55 1 27844U 03031E 16104.99775558 .00000134 00000-0 80608-4 0 9993 2 27844 098.6942 114.2026 0010435 143.0871 217.1027 14.21935858663289 CO-57 1 27848U 03031J 16104.95361706 .00000113 00000-0 71660-4 0 9994 2 27848 098.7039 114.2197 0010213 150.9569 209.2179 14.21563949663182 CO-65 1 32785U 08021C 16105.33280818 .00000744 00000-0 87748-4 0 9995 2 32785 97.6097 142.1848 0014258 143.2204 216.9994 14.87494227431139 PRISM 1 33493U 09002B 16105.81560766 .00001449 00000-0 13887-3 0 9993 2 33493 98.2244 322.9025 0017028 56.5505 303.7354 14.94761266391767 TISAT-1 1 36799U 10035E 16105.84896822 .00001582 00000-0 17134-3 0 9998 2 36799 98.0239 215.1792 0011295 296.1569 63.8485 14.89682968311998 ALMASAT-1 1 38078U 12006B 16105.22158906 .00054628 39847-5 75102-3 0 9990 2 38078 69.4502 187.8921 0400480 193.8540 165.1331 14.99238612219980 DUCHIFAT-1 1 40021U 14033M 16105.72234962 .00001270 00000-0 14028-3 0 9994 2 40021 97.9357 12.1143 0011754 272.7760 87.2112 14.89178666 98813 NANOSATCBR1 1 40024U 14033Q 16105.67837007 .00001152 00000-0 12970-3 0 9993 2 40024 97.9333 11.5474 0011019 272.7543 87.2412 14.88605264 98780 DTUSAT-2 1 40030U 14033W 16105.67839074 .00000877 00000-0 10269-3 0 9998 2 40030 97.9309 10.6480 0010633 266.9517 93.0482 14.87558735 98730 ANTELSAT 1 40034U 14033AA 16105.79920863 .00000524 00000-0 86852-4 0 9993 2 40034 97.9115 355.7175 0058252 228.8809 130.7374 14.73320491 97844 MET-2/21 1 22782U 93055A 16105.25889095 .00000010 00000-0 -45261-5 0 9997 2 22782 82.5524 3.9690 0022059 190.7486 284.6565 13.83788694142379 NOAA-15 1 25338U 98030A 16105.49980982 .00000088 00000-0 55868-4 0 9995 2 25338 98.7836 109.5213 0010891 17.3827 342.7723 14.25716987931913 NOAA-18 1 28654U 05018A 16105.51343707 .00000068 00000-0 62268-4 0 9994 2 28654 99.1983 110.7876 0014120 189.3160 170.7751 14.12278716561742 NOAA-19 1 33591U 09005A 16105.52875582 .00000154 00000-0 10855-3 0 9992 2 33591 99.0337 61.8026 0014786 41.5380 318.6912 14.12061607370158 HUBBLE 1 20580U 90037B 16105.15775463 .00001419 00000-0 77939-4 0 9999 2 20580 28.4706 321.5331 0002637 239.4290 47.7753 15.08299214225439 ISS 1 25544U 98067A 16105.89927881 -.00000356 00000-0 18451-5 0 9994 2 25544 51.6453 13.7032 0001546 81.0820 9.4371 15.54196642995131 CO-58 1 28895U 05043F 16105.77111522 .00000405 00000-0 87195-4 0 9996 2 28895 97.8291 282.9115 0018158 62.0884 298.2155 14.63159056557839 CAPE1 1 31130U 07012P 16105.34816372 .00000502 00000-0 11734-3 0 9991 2 31130 98.0266 63.1929 0098141 94.6715 266.5700 14.55884714476848 AAUSAT2 1 32788U 08021F 16105.04402744 .00001537 00000-0 15267-3 0 9997 2 32788 097.6106 150.0149 0013690 121.3376 238.9186 14.93060226431526 DO-64 1 32789U 08021G 16104.95366057 .00005184 00000-0 39026-3 0 9994 2 32789 097.6131 165.3026 0016005 116.5244 243.7624 15.02847194432251 CO-66 1 32791U 08021J 16105.11068897 .00001229 00000-0 13383-3 0 9991 2 32791 97.6106 144.9166 0014859 134.5365 225.7070 14.89662172431252 RS-30 1 32953U 08025A 16105.70049311 .00000010 00000-0 -13620-7 0 9996 2 32953 82.5024 146.1340 0019795 137.8565 222.4038 12.43068575358198 JUGNU 1 37839U 11058B 16105.58536687 .00000353 00000-0 46390-4 0 9993 2 37839 19.9601 169.1850 0019076 138.7264 7.3903 14.12534267233029 SRMSAT 1 37841U 11058D 16105.37526766 .00000344 00000-0 44135-4 0 9995 2 37841 19.9711 203.3375 0012040 51.5013 14.8068 14.10534542232663 AO-71 1 37854U 11061E 16105.81887805 .00003272 00000-0 18964-3 0 9999 2 37854 101.7103 116.4424 0173861 260.6854 97.4660 15.01808333242586 HRBE 1 37855U 11061F 16104.99236011 .00003393 00000-0 19248-3 0 9995 2 37855 101.7210 113.3169 0187589 266.9795 090.9935 15.00707362241898 HORYU-2 1 38340U 12025D 16105.87982398 .00000773 00000-0 12312-3 0 9994 2 38340 98.3512 89.4205 0010956 208.2015 151.8600 14.74959310210147 RS-40 1 38735U 12041C 16105.69669326 .00000040 00000-0 21992-3 0 9994 2 38735 82.4757 231.3376 0016209 239.9705 119.9762 12.42572323168482 BEESAT-3 1 39134U 13015E 16105.18336873 .00004739 00000-0 25842-3 0 9999 2 39134 64.8712 168.8335 0009552 251.1204 108.8886 15.15547454164416 BEESAT-2 1 39136U 13015G 16105.35856269 .00003900 00000-0 22833-3 0 9992 2 39136 64.8719 173.5732 0008266 249.9271 110.0964 15.13300867164346 ZACUBE-1 1 39417U 13066B 16105.06563441 .00000745 00000-0 10177-3 0 9997 2 39417 097.6870 160.6564 0058655 231.2201 128.3764 14.80321119129284 TRITON-1 1 39427U 13066M 16105.04918292 .00000555 00000-0 98058-4 0 9998 2 39427 097.6741 142.4227 0113365 282.6503 076.2047 14.67132601127926 GOMX-1 1 39430U 13066Q 16105.86687308 .00000459 00000-0 93519-4 0 9993 2 39430 97.6735 131.6113 0151595 315.8906 43.0289 14.58540779127491 LO-74 1 39440U 13066AA 16105.04945338 .00000616 00000-0 94298-4 0 9994 2 39440 097.6810 153.3950 0079847 250.9572 108.2976 14.75089729127627 NO-84 1 40654U 15025D 16105.16728349 .00007338 00000-0 17020-3 0 00888 2 40654 055.0050 340.8288 0209465 274.2711 083.4491 15.23897212014272 NO-83 1 40655U 15025E 16105.13791260 .00010692 00000-0 22798-3 0 00962 2 40655 054.9906 336.6068 0193715 275.4832 082.4139 15.28056298014305 SPROUT 1 39770U 14029E 16105.83749774 .00002184 00000-0 26109-3 0 9990 2 39770 97.8683 203.8005 0007857 294.0708 65.9722 14.85196658102539 EO-80 1 40032U 14033Y 16105.76890493 .00000889 00000-0 10425-3 0 9999 2 40032 97.9317 10.7486 0010600 266.8002 93.2002 14.87491332 98740 VELOX-1 1 40057U 14034E 16105.84316891 .00000789 00000-0 12056-3 0 9992 2 40057 98.1936 193.6982 0010888 358.3691 1.7480 14.76616389 96536 DAURIA DX 1 1 40071U 14037C 16105.82483151 .00000376 00000-0 56219-4 0 9995 2 40071 98.3307 194.2936 0008419 359.0376 1.0824 14.80774576 95573 UKUBE-1 1 40074U 14037F 16105.78927922 .00000824 00000-0 10859-3 0 9999 2 40074 98.3343 196.1281 0004739 9.8620 350.2686 14.82982493 95670 HODOYOSHI-1 1 40299U 14070B 16105.85684696 .00001937 00000-0 90025-4 0 9991 2 40299 97.4311 188.5691 0014544 147.4411 322.9747 15.21099543 79806 CHUBUSAT-1 1 40300U 14070C 16105.74337184 .00002361 00000-0 11350-3 0 9994 2 40300 97.4272 186.8648 0022008 155.8245 321.2160 15.19583012 79694 QSAT-EOS 1 40301U 14070D 16105.74498584 .00004618 00000-0 21125-3 0 9995 2 40301 97.4212 186.1342 0030480 157.2505 318.7256 15.20606226 79660 FIREBIRD FU3 1 40377U 15003B 16105.81151677 .00005338 00000-0 24590-3 0 9991 2 40377 99.0815 200.6636 0145159 339.3575 20.1822 15.11927264 66205 FIREBIRD FU4 1 40378U 15003C 16105.80827177 .00005447 00000-0 25053-3 0 9992 2 40378 99.0816 200.6717 0145408 339.3163 20.2213 15.11936885 66201 GRIFEX 1 40379U 15003D 16105.80591311 .00004246 00000-0 20376-3 0 9990 2 40379 99.0826 200.0120 0149083 342.3954 17.2134 15.10316926 66160 DEORBITSAIL 1 40719U 15032E 16105.20429618 .00001229 00000-0 18798-3 0 9997 2 40719 98.0246 357.3762 0018206 82.4350 277.8927 14.75423711 41051 NUDT-PHONESAT 1 40900U 15049B 16105.71347256 .00004735 00000-0 24763-3 0 9994 2 40900 97.4466 114.5854 0013302 278.6929 202.8138 15.16266257 31459 XW-2D 1 40907U 15049J 16105.85156890 .00001693 00000-0 98321-4 0 9990 2 40907 97.4505 114.2029 0013362 254.3422 189.5780 15.13394283 31425 XW-2F 1 40910U 15049M 16105.84340485 .00002787 00000-0 15789-3 0 9999 2 40910 97.4539 114.3149 0014332 253.5235 228.5077 15.13752367 31313 XW-2B 1 40911U 15049N 16105.78879351 .00001610 00000-0 93720-4 0 9998 2 40911 97.4553 114.2757 0013216 254.6825 213.5338 15.13381881 31314 DCBB 1 40912U 15049P 16105.85179823 .00002897 00000-0 15545-3 0 9990 2 40912 97.4546 114.9090 0014798 249.7570 194.2336 15.15656168 31365 TW-1C 1 40926U 15051B 16105.81031128 .00010350 00000-0 30429-3 0 9990 2 40926 97.2811 143.4471 0012846 276.9053 196.6588 15.35208130 31036 TW-1A 1 40928U 15051D 16105.76709878 .00004748 00000-0 15281-3 0 9993 2 40928 97.2763 142.8954 0012595 297.1510 175.9221 15.32629955 31007 IO-86 1 40931U 15052B 16105.71701559 .00000804 00000-0 23085-4 0 9992 2 40931 6.0000 47.5978 0014114 302.8850 57.0014 14.76447970 29537 GomX-3 1 40949U 98067HA 16105.77595889 .00089194 00000-0 65329-3 0 9996 2 40949 51.6374 1.0264 0003795 11.1374 348.9707 15.72419779 30067 LQSat 1 40958U 15057A 16105.79109757 .00000179 00000-0 35755-4 0 9998 2 40958 98.0172 181.5085 0018314 1.7508 358.3756 14.72845510 28050 AO-85 1 40967U 15058D 16105.38865969 .00000482 00000-0 68519-4 0 00978 2 40967 064.7781 079.2809 0210264 225.2373 133.1478 14.74929366013861 ATHENOXAT-1 1 41168U 15077C 16105.56495811 .00003855 00000-0 19261-3 0 9995 2 41168 14.9863 56.2934 0013013 202.8995 324.5673 15.09591112 18121 ChubuSat-2 1 41338U 16012B 16105.27616337 .00000926 00000-0 67133-4 0 9998 2 41338 31.0041 315.4931 0013998 134.7200 225.4587 14.99307275 8551 ChubuSat-3 1 41339U 16012C 16105.73306655 .00000892 00000-0 64004-4 0 9995 2 41339 31.0146 312.4710 0013573 146.7753 213.3747 14.99542943 8596 Horyu-4 1 41340U 16012D 16104.85581088 .00001475 00000-0 10926-3 0 9995 2 41340 31.0068 317.8499 0014247 140.6237 219.5440 14.99893861 8487 /EX